CW4591 Weather Reports


Display with metric or nautical units.
time (UTC)temp
F
wind
direction
speed
MPH
gust
MPH
rain 1hr
in
rain 24hr
in
rain mn
in
humidity
%
barometer
mb
20260903164537 32 89 1.0 7.0 0.00 0.00 0.00 92 1020.9
20260903163037 30 94 1.0 5.0 0.00 0.00 0.00 92 1020.9
20260903161532 29 103 0.0 5.0 0.00 0.00 0.00 93 1020.8
20260903160032 28 73 1.0 3.0 0.00 0.00 0.00 93 1020.8
20260903154532 28 73 1.0 3.0 0.00 0.00 0.00 93 1020.9
20260903153030 27 331 0.0 1.0 0.00 0.00 0.00 93 1020.9
20260903151531 27 359 0.0 0.0 0.00 0.00 0.00 93 1020.9
20260903150038 26 331 0.0 0.0 0.00 0.00 0.00 93 1020.8
20260903144528 26 359 0.0 0.0 0.00 0.00 0.00 92 1020.7
20260903143030 26 359 0.0 0.0 0.00 0.00 0.00 92 1020.8
20260903141526 26 331 0.0 0.0 0.00 0.00 0.00 92 1020.8
20260903140026 26 330 0.0 0.0 0.00 0.00 0.00 92 1020.7
20260903134524 26 330 0.0 0.0 0.00 0.00 0.00 92 1020.8
20260903133026 26 331 0.0 0.0 0.00 0.00 0.00 92 1020.8
20260903131522 26 359 0.0 0.0 0.00 0.00 0.00 92 1020.6
20260903130020 26 330 0.0 0.0 0.00 0.00 0.00 91 1020.6
20260903124523 26 330 0.0 0.0 0.00 0.00 0.00 90 1020.5
20260903123026 27 331 0.0 0.0 0.00 0.00 0.00 89 1020.4
20260903121513 28 331 0.0 0.0 0.00 0.00 0.00 88 1020.3
20260903120010 29 330 0.0 0.0 0.00 0.00 0.00 87 1020.4
20260903114507 30 359 0.0 0.0 0.00 0.00 0.00 87 1020.4
20260903113004 31 359 0.0 0.0 0.00 0.00 0.00 87 1020.2
20260903111617 32 359 0.0 0.0 0.00 0.00 0.00 86 1020.1
20260903110058 33 331 0.0 0.0 0.00 0.00 0.00 86 1020.1
20260903104605 33 330 0.0 0.0 0.00 0.00 0.00 86 1020.0
20260903103103 34 330 0.0 0.0 0.00 0.00 0.00 86 1019.9
20260903101554 34 330 0.0 0.0 0.00 0.00 0.00 84 1019.9
20260903100049 35 330 0.0 0.0 0.00 0.00 0.00 84 1019.7
20260903094556 35 330 0.0 0.0 0.00 0.00 0.00 83 1019.7
20260903093117 35 330 0.0 0.0 0.00 0.00 0.00 83 1019.5
20260903091550 36 330 0.0 0.0 0.00 0.00 0.00 83 1019.3
20260903090043 36 330 0.0 0.0 0.00 0.00 0.00 82 1019.3
20260903084539 36 330 0.0 0.0 0.00 0.00 0.00 81 1019.2
20260903083037 36 330 0.0 0.0 0.00 0.00 0.00 80 1019.1
20260903081539 37 330 0.0 0.0 0.00 0.00 0.00 79 1019.2
20260903080034 37 330 0.0 0.0 0.00 0.00 0.00 79 1019.1
20260903074533 37 330 0.0 0.0 0.00 0.00 0.00 79 1019.1
20260903073031 38 330 0.0 0.0 0.00 0.00 0.00 79 1018.9
20260903071529 38 330 0.0 0.0 0.00 0.00 0.00 78 1018.8
20260903070050 38 359 0.0 0.0 0.00 0.00 0.00 77 1018.4
20260903064527 39 330 0.0 1.0 0.00 0.00 0.00 75 1018.4
20260903063024 39 359 0.0 0.0 0.00 0.00 0.00 74 1018.2
20260903061525 40 330 1.0 4.0 0.00 0.00 0.00 72 1018.1
20260903060021 40 359 3.0 5.0 0.00 0.00 0.00 70 1017.9
20260903054533 40 330 2.0 5.0 0.00 0.00 0.00 70 1017.7
20260903053019 41 316 0.0 3.0 0.00 0.00 0.00 71 1017.5
20260903051518 41 335 1.0 4.0 0.00 0.00 0.00 71 1017.4
20260903050016 41 318 2.0 4.0 0.00 0.00 0.00 70 1017.3
20260903044514 41 305 2.0 6.0 0.00 0.00 0.00 69 1017.1
20260903043020 42 354 3.0 7.0 0.00 0.00 0.00 68 1016.9
20260903041519 42 310 2.0 7.0 0.00 0.00 0.00 66 1016.7
20260903040010 43 359 4.0 9.0 0.00 0.00 0.00 66 1016.7
20260903034514 43 317 4.0 10.0 0.00 0.00 0.00 65 1016.4
20260903033007 43 337 4.0 11.0 0.00 0.00 0.00 63 1016.3
20260903031505 43 293 6.0 12.0 0.00 0.00 0.00 64 1016.0
20260903030005 43 333 5.0 9.0 0.00 0.00 0.00 63 1016.0
20260903024504 44 359 4.0 15.0 0.00 0.00 0.00 60 1016.0
20260903023006 44 359 4.0 14.0 0.00 0.00 0.00 59 1015.7
20260903021504 45 286 5.0 11.0 0.00 0.00 0.00 60 1015.5
20260903014624 45 341 5.0 10.0 0.00 0.00 0.00 60 1015.3
20260903013107 44 302 7.0 13.0 0.00 0.00 0.00 61 1015.2
20260903011556 45 4 6.0 16.0 0.00 0.00 0.00 58 1015.0
20260903010054 45 359 5.0 12.0 0.00 0.00 0.00 60 1014.7
20260903004556 45 318 9.0 17.0 0.00 0.00 0.00 58 1014.7
20260903003105 45 339 6.0 16.0 0.00 0.00 0.00 59 1014.5
20260903001549 44 354 3.0 13.0 0.00 0.00 0.00 63 1014.4
20260903000057 43 359 7.0 16.0 0.00 0.00 0.00 62 1014.2
20260902234545 45 324 7.0 13.0 0.00 0.00 0.00 62 1013.9
20260902233044 44 304 6.0 13.0 0.00 0.00 0.00 66 1013.7
20260902231545 43 295 7.0 14.0 0.00 0.00 0.00 69 1013.5
20260902230043 43 8 6.0 15.0 0.00 0.00 0.00 70 1013.4
20260902224556 44 354 6.0 16.0 0.00 0.00 0.00 68 1013.1
20260902223036 44 10 6.0 16.0 0.00 0.00 0.00 70 1013.1
20260902221533 45 303 8.0 18.0 0.00 0.00 0.00 69 1012.9
20260902220032 44 312 6.0 13.0 0.00 0.00 0.00 72 1012.6
20260902214603 44 336 8.0 17.0 0.00 0.00 0.00 72 1012.6
20260902213029 45 359 6.0 14.0 0.00 0.00 0.00 70 1012.4
20260902211530 44 343 8.0 19.0 0.00 0.00 0.00 69 1012.3
20260902210027 44 342 4.0 14.0 0.00 0.00 0.00 71 1012.1
20260902204526 43 343 5.0 18.0 0.00 0.00 0.00 72 1012.0
20260902203024 43 331 6.0 13.0 0.00 0.00 0.00 73 1011.7
20260902201531 43 354 5.0 13.0 0.00 0.00 0.00 73 1011.4
20260902200021 43 310 4.0 13.0 0.00 0.00 0.00 74 1011.2
20260902194533 43 359 7.0 15.0 0.00 0.00 0.00 75 1011.0
20260902193020 43 354 4.0 19.0 0.00 0.00 0.00 75 1010.7
20260902191517 44 343 6.0 12.0 0.00 0.00 0.00 73 1010.5
20260902190014 45 68 3.0 10.0 0.00 0.00 0.00 75 1010.1
20260902184510 43 23 3.0 8.0 0.00 0.00 0.00 78 1009.9
20260902183006 41 314 1.0 6.0 0.00 0.00 0.00 86 1009.8
20260902181502 39 321 0.0 3.0 0.00 0.00 0.00 89 1009.6
20260902180058 37 321 0.0 4.0 0.00 0.00 0.00 94 1009.4
20260902174556 35 316 0.0 0.0 0.00 0.00 0.00 94 1009.3
20260902173050 34 316 0.0 1.0 0.00 0.00 0.00 94 1009.2
20260902171548 33 315 0.0 1.0 0.00 0.00 0.00 94 1009.2
20260902170045 32 316 0.0 3.0 0.00 0.00 0.00 95 1009.0